Location: Mentone
(34.5413°N, 85.5351°W)
Time: 06:12:50
(UTC-05:00)

Vanguard 2 Rocket - Visible Passes

Search period start: 01 September 2014 00:00
Search period end: 11 September 2014 00:00
Orbit: 554 x 3335 km, 32.9° (Epoch: 01 September)

Date Brightness Start Highest point End Pass type
(mag) Time Alt. Az. Time Alt. Az. Time Alt. Az.
01 Sep 6.6 19:41:26 10° WSW 19:48:10 72° S 19:52:17 12° E visible
01 Sep 8.3 21:56:33 10° W 21:58:11 20° W 21:58:11 20° W visible
02 Sep 6.0 20:57:39 10° W 21:03:02 69° S 21:03:09 68° S visible
03 Sep 6.5 19:58:15 10° W 20:04:59 76° S 20:08:07 20° E visible
03 Sep 8.9 22:13:31 10° W 22:14:02 13° W 22:14:02 13° W visible
04 Sep 6.9 21:14:31 10° W 21:19:00 46° SW 21:19:00 46° SW visible
05 Sep 6.6 20:15:06 10° W 20:21:46 69° S 20:23:58 31° ESE visible
06 Sep 7.0 19:15:10 10° W 19:23:34 78° S 19:28:31 10° E visible
06 Sep 7.9 21:31:30 10° W 21:34:50 28° WSW 21:34:50 28° WSW visible
07 Sep 6.8 20:31:59 10° W 20:38:27 53° SSW 20:39:49 40° SSE visible
08 Sep 7.1 19:32:02 10° W 19:40:20 69° SSW 19:44:48 13° ESE visible
08 Sep 8.7 21:48:50 10° W 21:50:43 16° WSW 21:50:43 16° WSW visible
09 Sep 7.3 20:48:58 10° W 20:54:56 36° SSW 20:55:43 34° S visible
10 Sep 7.4 19:48:54 10° W 19:56:57 54° SSW 20:00:43 18° SE visible
